Time,TemperatureF,DewpointF,PressureIn,WindDirection,WindDirectionDegrees,WindSpeedMPH,WindSpeedGustMPH,Humidity,HourlyPrecipIn,Conditions,Clouds,dailyrainin,SoftwareType,DateUTC
2013-01-18 00:09:00,20.6,10.0,30.35,NW,321,3.0,4.0,64,0.00,,,0.00,weatherlink.com 1.10,2013-01-18 05:09:00,
2013-01-18 00:24:00,20.4,10.0,30.35,NNW,329,2.0,4.0,64,0.00,,,0.00,weatherlink.com 1.10,2013-01-18 05:24:00,
2013-01-18 00:39:00,20.1,10.0,30.35,WNW,302,2.0,3.0,65,0.00,,,0.00,weatherlink.com 1.10,2013-01-18 05:39:00,
2013-01-18 00:54:00,19.8,9.0,30.36,NW,318,2.0,5.0,63,0.00,,,0.00,weatherlink.com 1.10,2013-01-18 05:54:00,
2013-01-18 01:09:00,19.6,9.0,30.36,WNW,290,0.0,3.0,64,0.00,,,0.00,weatherlink.com 1.10,2013-01-18 06:09:00,
2013-01-18 01:24:00,19.4,9.0,30.37,NW,316,1.0,3.0,64,0.00,,,0.00,weatherlink.com 1.10,2013-01-18 06:24:00,
2013-01-18 01:39:00,19.4,9.0,30.38,NW,313,0.0,3.0,63,0.00,,,0.00,weatherlink.com 1.10,2013-01-18 06:39:00,
2013-01-18 01:54:00,19.2,8.0,30.38,NW,308,1.0,3.0,63,0.00,,,0.00,weatherlink.com 1.10,2013-01-18 06:54:00,
2013-01-18 02:09:00,19.0,9.0,30.39,WNW,297,0.0,1.0,64,0.00,,,0.00,weatherlink.com 1.10,2013-01-18 07:09:00,
2013-01-18 02:24:00,19.2,9.0,30.40,WNW,290,0.0,0.0,65,0.00,,,0.00,weatherlink.com 1.10,2013-01-18 07:24:00,
2013-01-18 02:39:00,19.2,10.0,30.40,WNW,295,0.0,0.0,66,0.00,,,0.00,weatherlink.com 1.10,2013-01-18 07:39:00,
2013-01-18 02:54:00,19.0,9.0,30.41,WNW,298,0.0,0.0,66,0.00,,,0.00,weatherlink.com 1.10,2013-01-18 07:54:00,
2013-01-18 03:10:00,18.7,9.0,30.41,WNW,298,0.0,0.0,66,0.00,,,0.00,weatherlink.com 1.10,2013-01-18 08:10:00,
2013-01-18 03:25:00,18.5,9.0,30.41,WNW,298,0.0,0.0,67,0.00,,,0.00,weatherlink.com 1.10,2013-01-18 08:25:00,
2013-01-18 03:40:00,18.4,10.0,30.41,WNW,298,0.0,0.0,69,0.00,,,0.00,weatherlink.com 1.10,2013-01-18 08:40:00,
2013-01-18 03:55:00,17.7,10.0,30.41,WNW,298,0.0,0.0,71,0.00,,,0.00,weatherlink.com 1.10,2013-01-18 08:55:00,
2013-01-18 04:10:00,17.4,10.0,30.41,WNW,298,0.0,0.0,72,0.00,,,0.00,weatherlink.com 1.10,2013-01-18 09:10:00,
2013-01-18 04:25:00,17.4,10.0,30.41,WNW,298,0.0,0.0,74,0.00,,,0.00,weatherlink.com 1.10,2013-01-18 09:25:00,
2013-01-18 04:40:00,17.5,10.0,30.40,WNW,298,0.0,0.0,72,0.00,,,0.00,weatherlink.com 1.10,2013-01-18 09:40:00,
2013-01-18 04:55:00,17.8,11.0,30.41,WNW,298,0.0,0.0,74,0.00,,,0.00,weatherlink.com 1.10,2013-01-18 09:55:00,
2013-01-18 05:10:00,18.4,10.0,30.40,WNW,298,0.0,0.0,70,0.00,,,0.00,weatherlink.com 1.10,2013-01-18 10:10:00,
2013-01-18 05:25:00,18.1,11.0,30.41,WNW,298,0.0,0.0,72,0.00,,,0.00,weatherlink.com 1.10,2013-01-18 10:25:00,
2013-01-18 05:40:00,18.1,10.0,30.40,WNW,298,0.0,0.0,71,0.00,,,0.00,weatherlink.com 1.10,2013-01-18 10:40:00,
2013-01-18 05:55:00,17.9,10.0,30.41,WNW,298,0.0,0.0,72,0.00,,,0.00,weatherlink.com 1.10,2013-01-18 10:55:00,
2013-01-18 06:10:00,17.4,10.0,30.41,WNW,298,0.0,0.0,73,0.00,,,0.00,weatherlink.com 1.10,2013-01-18 11:10:00,
2013-01-18 06:25:00,16.7,10.0,30.41,WNW,298,0.0,0.0,75,0.00,,,0.00,weatherlink.com 1.10,2013-01-18 11:25:00,
2013-01-18 06:40:00,16.1,10.0,30.41,WNW,298,0.0,0.0,76,0.00,,,0.00,weatherlink.com 1.10,2013-01-18 11:40:00,
2013-01-18 06:55:00,16.5,11.0,30.40,WNW,298,0.0,0.0,78,0.00,,,0.00,weatherlink.com 1.10,2013-01-18 11:55:00,
2013-01-18 07:10:00,16.6,11.0,30.40,ESE,102,0.0,0.0,78,0.00,,,0.00,weatherlink.com 1.10,2013-01-18 12:10:00,
2013-01-18 07:25:00,16.5,11.0,30.40,ESE,122,0.0,0.0,78,0.00,,,0.00,weatherlink.com 1.10,2013-01-18 12:25:00,
2013-01-18 07:40:00,16.6,11.0,30.39,ESE,122,0.0,0.0,78,0.00,,,0.00,weatherlink.com 1.10,2013-01-18 12:40:00,
2013-01-18 07:55:00,16.8,11.0,30.38,ESE,119,0.0,0.0,79,0.00,,,0.00,weatherlink.com 1.10,2013-01-18 12:55:00,
2013-01-18 08:10:00,17.5,11.0,30.38,SE,124,0.0,0.0,77,0.00,,,0.00,weatherlink.com 1.10,2013-01-18 13:10:00,
2013-01-18 08:25:00,18.1,12.0,30.38,SE,138,0.0,1.0,77,0.00,,,0.00,weatherlink.com 1.10,2013-01-18 13:25:00,
2013-01-18 08:40:00,18.9,13.0,30.38,SE,132,0.0,1.0,76,0.00,,,0.00,weatherlink.com 1.10,2013-01-18 13:40:00,
2013-01-18 08:55:00,19.4,13.0,30.38,SE,143,0.0,2.0,76,0.00,,,0.00,weatherlink.com 1.10,2013-01-18 13:55:00,
2013-01-18 09:10:00,19.8,13.0,30.38,SSE,155,0.0,4.0,76,0.00,,,0.00,weatherlink.com 1.10,2013-01-18 14:10:00,
2013-01-18 09:25:00,20.4,14.0,30.37,SE,146,0.0,2.0,76,0.00,,,0.00,weatherlink.com 1.10,2013-01-18 14:25:00,
2013-01-18 09:40:00,21.4,15.0,30.37,SE,125,1.0,4.0,76,0.00,,,0.00,weatherlink.com 1.10,2013-01-18 14:40:00,
2013-01-18 09:55:00,22.5,16.0,30.37,SE,146,2.0,3.0,75,0.00,,,0.00,weatherlink.com 1.10,2013-01-18 14:55:00,
2013-01-18 10:10:00,23.2,16.0,30.36,SE,131,0.0,2.0,74,0.00,,,0.00,weatherlink.com 1.10,2013-01-18 15:10:00,
2013-01-18 10:25:00,24.0,17.0,30.36,SSW,205,1.0,3.0,74,0.00,,,0.00,weatherlink.com 1.10,2013-01-18 15:25:00,
2013-01-18 10:40:00,24.5,18.0,30.36,South,169,1.0,6.0,75,0.00,,,0.00,weatherlink.com 1.10,2013-01-18 15:40:00,
2013-01-18 10:55:00,25.2,19.0,30.35,WNW,288,1.0,3.0,77,0.00,,,0.00,weatherlink.com 1.10,2013-01-18 15:55:00,
2013-01-18 11:10:00,26.2,20.0,30.34,WNW,285,0.0,4.0,77,0.00,,,0.00,weatherlink.com 1.10,2013-01-18 16:10:00,
2013-01-18 11:25:00,27.3,21.0,30.32,SW,226,1.0,4.0,76,0.00,,,0.00,weatherlink.com 1.10,2013-01-18 16:25:00,
2013-01-18 11:40:00,28.2,21.0,30.30,SW,231,0.0,6.0,73,0.00,,,0.00,weatherlink.com 1.10,2013-01-18 16:40:00,
2013-01-18 11:55:00,29.2,21.0,30.28,SE,145,6.0,7.0,70,0.00,,,0.00,weatherlink.com 1.10,2013-01-18 16:55:00,
2013-01-18 12:11:00,30.3,20.0,30.26,East,101,4.0,6.0,65,0.00,,,0.00,weatherlink.com 1.10,2013-01-18 17:11:00,
2013-01-18 12:26:00,30.5,18.0,30.25,ESE,120,1.0,4.0,60,0.00,,,0.00,weatherlink.com 1.10,2013-01-18 17:26:00,
2013-01-18 12:41:00,30.8,17.0,30.23,WSW,238,3.0,5.0,57,0.00,,,0.00,weatherlink.com 1.10,2013-01-18 17:41:00,
2013-01-18 12:56:00,31.3,17.0,30.21,West,278,1.0,4.0,56,0.00,,,0.00,weatherlink.com 1.10,2013-01-18 17:56:00,
2013-01-18 13:11:00,31.7,17.0,30.20,SW,219,4.0,5.0,56,0.00,,,0.00,weatherlink.com 1.10,2013-01-18 18:11:00,
2013-01-18 13:26:00,31.8,18.0,30.18,ESE,108,0.0,6.0,57,0.00,,,0.00,weatherlink.com 1.10,2013-01-18 18:26:00,
2013-01-18 13:41:00,32.1,19.0,30.16,South,188,1.0,7.0,60,0.00,,,0.00,weatherlink.com 1.10,2013-01-18 18:41:00,
2013-01-18 13:56:00,32.6,20.0,30.14,SE,141,2.0,6.0,61,0.00,,,0.00,weatherlink.com 1.10,2013-01-18 18:56:00,
2013-01-18 14:11:00,33.4,22.0,30.13,SE,135,2.0,7.0,62,0.00,,,0.00,weatherlink.com 1.10,2013-01-18 19:11:00,
2013-01-18 14:26:00,34.3,22.0,30.12,SSW,205,1.0,5.0,61,0.00,,,0.00,weatherlink.com 1.10,2013-01-18 19:26:00,
2013-01-18 14:41:00,34.1,22.0,30.11,WSW,254,1.0,6.0,62,0.00,,,0.00,weatherlink.com 1.10,2013-01-18 19:41:00,
2013-01-18 14:56:00,34.1,23.0,30.10,SSE,156,1.0,8.0,63,0.00,,,0.00,weatherlink.com 1.10,2013-01-18 19:56:00,
2013-01-18 15:11:00,34.7,24.0,30.08,NW,323,1.0,4.0,64,0.00,,,0.00,weatherlink.com 1.10,2013-01-18 20:11:00,
2013-01-18 15:26:00,34.8,24.0,30.07,SE,133,1.0,8.0,64,0.00,,,0.00,weatherlink.com 1.10,2013-01-18 20:26:00,
2013-01-18 15:41:00,35.4,25.0,30.06,SSE,160,1.0,7.0,65,0.00,,,0.00,weatherlink.com 1.10,2013-01-18 20:41:00,
2013-01-18 15:56:00,35.6,25.0,30.05,WSW,255,1.0,7.0,65,0.00,,,0.00,weatherlink.com 1.10,2013-01-18 20:56:00,
2013-01-18 16:11:00,35.8,25.0,30.04,NW,323,1.0,5.0,65,0.00,,,0.00,weatherlink.com 1.10,2013-01-18 21:11:00,
2013-01-18 16:26:00,35.8,25.0,30.02,SE,146,1.0,7.0,66,0.00,,,0.00,weatherlink.com 1.10,2013-01-18 21:26:00,
2013-01-18 16:41:00,35.9,25.0,30.01,SE,138,2.0,6.0,66,0.00,,,0.00,weatherlink.com 1.10,2013-01-18 21:41:00,
2013-01-18 16:56:00,36.2,26.0,30.00,SW,233,2.0,11.0,66,0.00,,,0.00,weatherlink.com 1.10,2013-01-18 21:56:00,
2013-01-18 17:12:00,36.4,26.0,29.99,SSE,166,2.0,5.0,66,0.00,,,0.00,weatherlink.com 1.10,2013-01-18 22:12:00,
2013-01-18 17:27:00,36.4,26.0,29.98,SE,134,3.0,6.0,67,0.00,,,0.00,weatherlink.com 1.10,2013-01-18 22:27:00,
2013-01-18 17:42:00,36.2,26.0,29.98,SW,233,2.0,11.0,67,0.00,,,0.00,weatherlink.com 1.10,2013-01-18 22:42:00,
2013-01-18 17:57:00,35.9,26.0,29.97,SE,131,5.0,5.0,68,0.00,,,0.00,weatherlink.com 1.10,2013-01-18 22:57:00,
2013-01-18 18:12:00,35.8,26.0,29.96,South,182,1.0,3.0,68,0.00,,,0.00,weatherlink.com 1.10,2013-01-18 23:12:00,
2013-01-18 18:27:00,35.8,26.0,29.98,SW,215,0.0,5.0,68,0.00,,,0.00,weatherlink.com 1.10,2013-01-18 23:27:00,
2013-01-18 18:42:00,35.9,26.0,29.98,WSW,257,1.0,4.0,68,0.00,,,0.00,weatherlink.com 1.10,2013-01-18 23:42:00,
2013-01-18 18:57:00,36.1,26.0,29.98,WSW,238,1.0,5.0,68,0.00,,,0.00,weatherlink.com 1.10,2013-01-18 23:57:00,
2013-01-18 19:12:00,35.9,26.0,29.98,SW,235,2.0,3.0,68,0.00,,,0.00,weatherlink.com 1.10,2013-01-19 00:12:00,
2013-01-18 19:27:00,35.7,26.0,29.98,WSW,242,1.0,4.0,68,0.00,,,0.00,weatherlink.com 1.10,2013-01-19 00:27:00,
2013-01-18 19:42:00,35.8,26.0,29.98,SW,228,0.0,3.0,67,0.00,,,0.00,weatherlink.com 1.10,2013-01-19 00:42:00,
2013-01-18 19:57:00,35.7,26.0,29.97,ESE,120,1.0,3.0,67,0.00,,,0.00,weatherlink.com 1.10,2013-01-19 00:57:00,
2013-01-18 20:12:00,35.5,25.0,29.97,South,169,0.0,3.0,67,0.00,,,0.00,weatherlink.com 1.10,2013-01-19 01:12:00,
2013-01-18 20:27:00,35.3,26.0,29.96,SE,141,1.0,2.0,68,0.00,,,0.00,weatherlink.com 1.10,2013-01-19 01:27:00,
2013-01-18 20:42:00,35.1,25.0,29.96,West,260,1.0,2.0,68,0.00,,,0.00,weatherlink.com 1.10,2013-01-19 01:42:00,
2013-01-18 20:57:00,35.4,25.0,29.95,ESE,116,1.0,2.0,67,0.00,,,0.00,weatherlink.com 1.10,2013-01-19 01:57:00,
2013-01-18 21:12:00,35.8,25.0,29.95,SSW,205,0.0,3.0,66,0.00,,,0.00,weatherlink.com 1.10,2013-01-19 02:12:00,
2013-01-18 21:27:00,35.9,25.0,29.94,SSW,203,0.0,3.0,66,0.00,,,0.00,weatherlink.com 1.10,2013-01-19 02:27:00,
2013-01-18 21:42:00,36.2,25.0,29.94,West,263,1.0,4.0,65,0.00,,,0.00,weatherlink.com 1.10,2013-01-19 02:42:00,
2013-01-18 21:57:00,36.5,26.0,29.93,WSW,250,1.0,5.0,65,0.00,,,0.00,weatherlink.com 1.10,2013-01-19 02:57:00,
2013-01-18 22:12:00,36.9,26.0,29.93,WSW,253,0.0,4.0,64,0.00,,,0.00,weatherlink.com 1.10,2013-01-19 03:12:00,
2013-01-18 22:27:00,37.1,26.0,29.92,SW,235,1.0,3.0,64,0.00,,,0.00,weatherlink.com 1.10,2013-01-19 03:27:00,
2013-01-18 22:57:00,37.4,26.0,29.91,WSW,248,1.0,3.0,64,0.00,,,0.00,weatherlink.com 1.10,2013-01-19 03:57:00,
2013-01-18 23:12:00,37.6,27.0,29.91,WNW,294,1.0,3.0,65,0.00,,,0.00,weatherlink.com 1.10,2013-01-19 04:12:00,
2013-01-18 23:27:00,38.1,27.0,29.89,WNW,300,1.0,2.0,65,0.00,,,0.00,weatherlink.com 1.10,2013-01-19 04:27:00,
2013-01-18 23:42:00,38.4,27.0,29.89,SW,234,0.0,3.0,65,0.00,,,0.00,weatherlink.com 1.10,2013-01-19 04:42:00,
2013-01-18 23:57:00,38.7,28.0,29.89,WSW,248,0.0,3.0,65,0.00,,,0.00,weatherlink.com 1.10,2013-01-19 04:57:00,